Location: Bottenau
(48.5138°N, 8.0462°E)
Time: 05:03:59
(UTC+00:00)

Sich 1 - Pass Details

Date: 18 April 2021
Orbit: 593 x 626 km, 82.5° (Epoch: 09 May)

Event Time Altitude Azimuth Distance (km) Brightness Sun altitude
Rises 22:15:52 0° 353° (N) 2,847 7.6 -28.3°
Reaches altitude 10° 22:18:06 10° 357° (N) 1,939 6.5 -28.4°
Enters shadow 22:20:55 38° 15° (NNE) 917 4.2 -28.6°
